GW2737 Weather Reports


Display with metric or nautical units.
time (UTC)temp
F
wind
direction
speed
MPH
gust
MPH
rain 1hr
in
rain 24hr
in
rain mn
in
humidity
%
barometer
mb
20260504151024 61 0 0.0 2.0 0.00 0.00 0.00 71 1010.9
20260504150524 61 49 0.0 2.0 0.00 0.00 0.00 72 1010.9
20260504141024 53 0 0.0 1.0 0.00 0.00 0.00 87 1010.5
20260504140524 53 0 0.0 1.0 0.00 0.00 0.00 87 1010.5
20260504130525 50 0 0.0 1.0 0.00 0.00 0.00 90 1010.0
20260504110524 52 0 0.0 1.0 0.00 0.00 0.00 88 1010.0
20260504100524 52 0 0.0 0.0 0.00 0.00 0.00 87 1009.8
20260504081542 56 0 0.0 1.0 0.00 0.00 0.00 81 1009.7
20260504081024 56 0 0.0 1.0 0.00 0.00 0.00 81 1009.6
20260504080524 57 46 0.0 1.0 0.00 0.00 0.00 80 1009.6
20260504050525 63 235 0.0 2.0 0.00 0.00 0.00 67 1009.6
20260504045524 63 220 0.0 2.0 0.00 0.00 0.00 67 1009.5
20260504045028 64 165 0.0 2.0 0.00 0.00 0.00 67 1009.6
20260504044539 64 0 0.0 1.0 0.00 0.00 0.00 66 1009.6
20260504044024 65 236 0.0 1.0 0.00 0.00 0.00 66 1009.6
20260504043524 65 236 0.0 1.0 0.00 0.00 0.00 65 1009.6
20260504043043 65 0 0.0 1.0 0.00 0.00 0.00 65 1009.6
20260504042524 66 246 0.0 1.0 0.00 0.00 0.00 64 1009.6
20260504042028 66 285 0.0 1.0 0.00 0.00 0.00 65 1009.6
20260504041541 66 0 0.0 2.0 0.00 0.00 0.00 64 1009.6
20260504041026 67 0 0.0 2.0 0.00 0.00 0.00 63 1009.6
20260504040525 67 151 0.0 2.0 0.00 0.00 0.00 62 1009.7
20260504040040 68 222 0.0 2.0 0.00 0.00 0.00 61 1009.7
20260504035525 69 245 0.0 2.0 0.00 0.00 0.00 59 1009.6
20260504035027 69 284 0.0 2.0 0.00 0.00 0.00 61 1009.5
20260504034542 69 0 0.0 2.0 0.00 0.00 0.00 60 1009.6
20260504034024 70 238 0.0 3.0 0.00 0.00 0.00 60 1009.4
20260504033526 70 232 0.0 3.0 0.00 0.00 0.00 59 1009.5
20260504033041 71 251 1.0 3.0 0.00 0.00 0.00 57 1009.5
20260504032524 73 265 0.0 3.0 0.00 0.00 0.00 56 1009.5
20260504032025 73 287 1.0 3.0 0.00 0.00 0.00 56 1009.4
20260504031536 73 0 0.0 2.0 0.00 0.00 0.00 54 1009.5
20260504031024 74 132 0.0 2.0 0.00 0.00 0.00 53 1009.5
20260504030524 75 144 0.0 2.0 0.00 0.00 0.00 52 1009.6
20260504030048 76 238 1.0 2.0 0.00 0.00 0.00 49 1009.5
20260504025528 76 279 1.0 3.0 0.00 0.00 0.00 48 1009.5
20260504025025 76 0 1.0 3.0 0.00 0.00 0.00 48 1009.4
20260504024539 77 248 1.0 4.0 0.00 0.00 0.00 46 1009.5
20260504024024 77 254 0.0 4.0 0.00 0.00 0.00 45 1009.5
20260504023525 78 246 1.0 4.0 0.00 0.00 0.00 44 1009.5
20260504023037 78 275 1.0 4.0 0.00 0.00 0.00 45 1009.6
20260504022528 78 237 1.0 5.0 0.00 0.00 0.00 44 1009.6
20260504022024 78 209 1.0 5.0 0.00 0.00 0.00 43 1009.6
20260504021546 79 235 1.0 5.0 0.00 0.00 0.00 42 1009.6
20260504021024 79 277 3.0 5.0 0.00 0.00 0.00 42 1009.6
20260504020524 80 229 0.0 4.0 0.00 0.00 0.00 42 1009.6
20260504020054 80 0 0.0 3.0 0.00 0.00 0.00 42 1009.7
20260504015524 81 258 0.0 3.0 0.00 0.00 0.00 41 1009.8
20260504015037 81 281 1.0 3.0 0.00 0.00 0.00 42 1009.8
20260504014547 81 153 1.0 4.0 0.00 0.00 0.00 41 1009.8
20260504014024 81 139 0.0 4.0 0.00 0.00 0.00 42 1009.9
20260504013524 81 274 1.0 4.0 0.00 0.00 0.00 41 1009.9
20260504013041 81 227 1.0 4.0 0.00 0.00 0.00 39 1009.9
20260504012524 81 256 1.0 5.0 0.00 0.00 0.00 41 1009.9
20260504012024 80 284 2.0 5.0 0.00 0.00 0.00 40 1009.9
20260504011537 81 227 2.0 8.0 0.00 0.00 0.00 40 1010.1
20260504011023 81 236 2.0 8.0 0.00 0.00 0.00 39 1010.1
20260504010523 82 233 1.0 6.0 0.00 0.00 0.00 37 1010.1
20260504010038 82 279 0.0 6.0 0.00 0.00 0.00 39 1010.3
20260504005525 81 271 2.0 7.0 0.00 0.00 0.00 37 1010.4
20260504005025 81 267 2.0 8.0 0.00 0.00 0.00 38 1010.4
20260504004537 81 234 2.0 8.0 0.00 0.00 0.00 37 1010.4
20260504004025 81 245 4.0 8.0 0.00 0.00 0.00 36 1010.4
20260504003524 81 238 2.0 8.0 0.00 0.00 0.00 37 1010.5
20260504003037 80 346 2.0 7.0 0.00 0.00 0.00 36 1010.6
20260504002524 81 261 2.0 7.0 0.00 0.00 0.00 35 1010.5
20260504002024 81 245 2.0 8.0 0.00 0.00 0.00 35 1010.6
20260504001539 81 245 2.0 8.0 0.00 0.00 0.00 36 1010.6
20260504001024 81 291 3.0 9.0 0.00 0.00 0.00 38 1010.7
20260504000525 80 248 3.0 9.0 0.00 0.00 0.00 41 1010.7
20260504000047 81 254 2.0 9.0 0.00 0.00 0.00 38 1010.7
20260503235524 81 267 1.0 9.0 0.00 0.00 0.00 40 1010.7
20260503235025 80 271 5.0 9.0 0.00 0.00 0.00 40 1010.8
20260503234540 80 242 3.0 8.0 0.00 0.00 0.00 40 1010.8
20260503234024 80 278 3.0 9.0 0.00 0.00 0.00 39 1011.0
20260503233524 80 235 4.0 9.0 0.00 0.00 0.00 40 1011.0
20260503233037 81 261 2.0 9.0 0.00 0.00 0.00 42 1011.0
20260503232523 80 252 3.0 9.0 0.00 0.00 0.00 43 1011.1
20260503232024 80 271 5.0 9.0 0.00 0.00 0.00 44 1011.1
20260503231537 80 245 4.0 9.0 0.00 0.00 0.00 44 1011.2
20260503231025 81 269 4.0 9.0 0.00 0.00 0.00 43 1011.3
20260503230524 81 232 2.0 10.0 0.00 0.00 0.00 46 1011.2
20260503230037 80 232 4.0 10.0 0.00 0.00 0.00 45 1011.3
20260503225526 80 224 3.0 10.0 0.00 0.00 0.00 46 1011.4
20260503225028 80 225 3.0 10.0 0.00 0.00 0.00 45 1011.5
20260503224539 80 274 4.0 10.0 0.00 0.00 0.00 44 1011.5
20260503224026 80 241 4.0 10.0 0.00 0.00 0.00 42 1011.6
20260503223524 80 330 3.0 8.0 0.00 0.00 0.00 42 1011.7
20260503223041 80 218 2.0 9.0 0.00 0.00 0.00 40 1011.8
20260503222523 80 227 3.0 10.0 0.00 0.00 0.00 39 1011.9
20260503222025 79 249 5.0 10.0 0.00 0.00 0.00 37 1011.9
20260503221539 79 302 4.0 10.0 0.00 0.00 0.00 36 1011.9
20260503221024 79 212 5.0 10.0 0.00 0.00 0.00 34 1012.0
20260503220524 80 13 4.0 10.0 0.00 0.00 0.00 34 1012.1
20260503220039 80 273 3.0 10.0 0.00 0.00 0.00 36 1012.1
20260503215524 79 34 3.0 8.0 0.00 0.00 0.00 38 1012.1
20260503215023 79 261 3.0 7.0 0.00 0.00 0.00 39 1012.1
20260503214542 79 258 3.0 8.0 0.00 0.00 0.00 38 1012.2
20260503214020 79 298 3.0 8.0 0.00 0.00 0.00 39 1012.3
20260503213524 79 242 2.0 9.0 0.00 0.00 0.00 43 1012.3
20260503213038 78 246 3.0 10.0 0.00 0.00 0.00 42 1012.4
20260503212526 78 265 6.0 10.0 0.00 0.00 0.00 41 1012.4
20260503212025 79 296 3.0 9.0 0.00 0.00 0.00 41 1012.5
20260503211548 78 284 4.0 9.0 0.00 0.00 0.00 44 1012.5
20260503211024 78 267 6.0 9.0 0.00 0.00 0.00 43 1012.5
20260503210524 78 254 3.0 8.0 0.00 0.00 0.00 43 1012.7
20260503210040 78 267 2.0 7.0 0.00 0.00 0.00 43 1012.7
20260503205525 78 260 2.0 9.0 0.00 0.00 0.00 45 1012.8
20260503205024 78 298 4.0 9.0 0.00 0.00 0.00 46 1012.8
20260503204542 77 294 3.0 6.0 0.00 0.00 0.00 47 1012.9
20260503204026 77 222 1.0 9.0 0.00 0.00 0.00 47 1013.0
20260503203528 77 268 5.0 9.0 0.00 0.00 0.00 47 1013.1
20260503203046 78 317 2.0 9.0 0.00 0.00 0.00 46 1013.1
20260503202525 77 302 3.0 9.0 0.00 0.00 0.00 47 1013.1
20260503202025 77 257 3.0 9.0 0.00 0.00 0.00 49 1013.2
20260503201538 77 248 3.0 9.0 0.00 0.00 0.00 49 1013.3
20260503201026 77 282 3.0 9.0 0.00 0.00 0.00 49 1013.4
20260503200524 77 259 5.0 9.0 0.00 0.00 0.00 50 1013.3
20260503200052 78 236 4.0 9.0 0.00 0.00 0.00 48 1013.5
20260503195524 78 278 2.0 8.0 0.00 0.00 0.00 49 1013.4
20260503195024 77 332 1.0 8.0 0.00 0.00 0.00 45 1013.5
20260503194537 77 257 1.0 8.0 0.00 0.00 0.00 44 1013.5
20260503194024 78 22 3.0 6.0 0.00 0.00 0.00 42 1013.6
20260503193524 78 346 2.0 7.0 0.00 0.00 0.00 44 1013.6
20260503193052 76 239 2.0 8.0 0.00 0.00 0.00 41 1013.6
20260503192525 76 248 3.0 8.0 0.00 0.00 0.00 40 1013.7
20260503192026 77 266 2.0 7.0 0.00 0.00 0.00 40 1013.7
20260503191544 78 278 1.0 4.0 0.00 0.00 0.00 38 1013.8
20260503191024 77 252 2.0 4.0 0.00 0.00 0.00 42 1013.8
20260503190524 77 274 1.0 4.0 0.00 0.00 0.00 41 1013.7
20260503190039 76 216 2.0 6.0 0.00 0.00 0.00 38 1013.9
20260503185524 76 291 2.0 6.0 0.00 0.00 0.00 39 1013.9
20260503185026 77 276 3.0 6.0 0.00 0.00 0.00 38 1014.0
20260503184546 77 316 1.0 5.0 0.00 0.00 0.00 41 1014.0
20260503184027 75 264 2.0 5.0 0.00 0.00 0.00 39 1014.0
20260503183525 76 241 1.0 4.0 0.00 0.00 0.00 40 1014.1
20260503183042 75 271 0.0 5.0 0.00 0.00 0.00 41 1014.2
20260503182524 74 228 1.0 5.0 0.00 0.00 0.00 40 1014.3
20260503182028 74 330 2.0 4.0 0.00 0.00 0.00 41 1014.2
20260503181550 74 329 1.0 4.0 0.00 0.00 0.00 42 1014.3
20260503181024 74 294 1.0 3.0 0.00 0.00 0.00 41 1014.3
20260503180524 73 78 1.0 3.0 0.00 0.00 0.00 44 1014.4
20260503180048 73 49 1.0 3.0 0.00 0.00 0.00 44 1014.4
20260503175525 72 14 1.0 3.0 0.00 0.00 0.00 43 1014.5
20260503175024 73 10 2.0 3.0 0.00 0.00 0.00 43 1014.5
20260503174546 72 68 0.0 7.0 0.00 0.00 0.00 46 1014.6
20260503174025 71 327 3.0 7.0 0.00 0.00 0.00 44 1014.7
20260503173524 71 55 2.0 4.0 0.00 0.00 0.00 44 1014.7
20260503173052 71 70 2.0 4.0 0.00 0.00 0.00 45 1014.9
20260503172523 71 0 0.0 4.0 0.00 0.00 0.00 47 1015.0
20260503172027 71 36 1.0 4.0 0.00 0.00 0.00 47 1014.9
20260503171537 70 138 2.0 4.0 0.00 0.00 0.00 51 1015.0
20260503171027 69 330 1.0 4.0 0.00 0.00 0.00 48 1014.9
20260503170528 69 329 1.0 4.0 0.00 0.00 0.00 50 1015.0